sat.trackr.live / text

‹ back to catalog

KUIPER-00120

NORAD 65762 · 2025-217A

PAYLOAD ACTIVE UNKNOWN

§ Identity

Operator
Country
US
Launch date
2025-09-25
Launch site
AFETR
Launch vehicle
Mass (kg)
RCS (m²)

External: N2YO · Heavens-Above · Gunter

§ Orbital elements

Epoch: 2026-09-20T07:02:36.638304Z

Period
97.30 min
Inclination
51.9003°
Eccentricity
0.0000519
Mean motion
14.79928704 rev/d
Perigee alt
629.2 km
Apogee alt
629.9 km
Semi-major
7,007.7 km
B*
2.4061e-4
RAAN
272.5100°
Arg perigee
63.2717°
Mean anomaly
296.8299°
Rev number
5,355

§ Raw data

KUIPER-001201 65762U 25217A   26263.29347961  .00001613  00000+0  24061-3 0  99992 65762  51.9003 272.5100 0000519  63.2717 296.8299 14.79928704 53558

JSON: /api/v1/satellites/65762 · /tle

For live sub-satellite position, see the globe view (requires WebGL).

§ Visibility from observer

Set your observer location to see the next 7 days of passes ≥ 10°. The values pass through the URL so the page stays shareable.

No JS? Fill the form by hand. The geolocation button needs JavaScript.